Location: *
(44.1392°N, 4.8079°E)
Time: 14:58:12
(UTC+00:00)

Meteor 2-19 Rocket - Pass Details

Date: 01 November 2021
Orbit: 935 x 959 km, 82.5° (Epoch: 08 December)

Event Time Altitude Azimuth Distance (km) Brightness Sun altitude
Rises 20:04:33 0° 353° (N) 3,612 7.8 -38.6°
Reaches altitude 10° 20:07:04 10° 357° (N) 2,661 7.0 -39.0°
Enters shadow 20:07:15 11° 357° (N) 2,597 6.9 -39.0°
